User: anonymous   Login
Location: Unspecified
(0.0000°N, 0.0000°E)
Time: 12:10:00
(UTC+02:00)
Language:

CZ-4 R/B - Orbit

View from above orbital plane
View from above orbital plane
View from above satellite
View from above satellite

Ground track
Ground track

The orbit data is extracted from the following two-line orbital elements,

1 28059U 03049C   16272.13696699  .00000038  00000-0  21239-4 0  9999
2 28059  98.5949 146.2911 0049595 327.4780 185.7885 14.52457382685638
Epoch (UTC): 28 September 2016 03:17:13
Eccentricity: 0.0049595
inclination: 98.5949°
perigee height: 682 km
apogee height: 753 km
right ascension of ascending node: 146.2911°
argument of perigee: 327.4780°
revolutions per day: 14.52457382
mean anomaly at epoch: 185.7885°
orbit number at epoch: 68563

The dashed part of the orbit path shows where the satellite is in the earth's shadow,  

DLR